Simultaneous Nadir Overpasses (SNOs) Predictions

Prediction of SNOs between METOP-B and NOAA-19 Satellite Orbit:

Table of predicted SNOs for the next 14.0 days since TLE Epoch: 9/17/2022
Index Date (METOP-B) Time (METOP-B) Lat,Lon (METOP-B) SZA (METOP-B ) Date (NOAA-19) Time (NOAA-19) Lat,Lon (NOAA-19) SZA (NOAA-19 ) Distance(km) Time Diff (sec)
1 09/24/2022 03:22:59 -80.89, -16.16 96.92 09/24/2022 03:21:56 -80.89, -16.20 96.96 1.00 63
2 09/24/2022 04:13:40 80.88, 151.01 83.07 09/24/2022 04:12:56 80.89, 150.93 83.05 1.51 44
3 09/24/2022 05:04:21 -80.89, -41.62 96.91 09/24/2022 05:03:56 -80.89, -41.79 96.94 3.02 25
4 09/24/2022 05:55:02 80.88, 125.55 83.09 09/24/2022 05:54:55 80.88, 125.71 83.10 2.95 7
5 09/24/2022 06:45:43 -80.88, -67.09 96.90 09/24/2022 06:45:55 -80.88, -67.02 96.89 1.28 12
6 09/24/2022 07:36:23 80.89, 100.44 83.14 09/24/2022 07:36:54 80.88, 100.49 83.16 1.37 31
7 09/24/2022 08:27:04 -80.89, -92.19 96.84 09/24/2022 08:27:54 -80.88, -92.24 96.83 1.51 50



Historial Predications of SNOs between METOP-B and NOAA-19
